| time (UTC) | temp C | wind direction | speed KPH | gust KPH | rain 1hr cm | rain 24hr cm | rain mn cm | humidity % | barometer mb |
| 20260507051916 | 8 | 248 | 1.6 | 6.4 | 0.00 | 0.58 | 0.00 | 86 | 1013.3 |
| 20260507050916 | 8 | 225 | 3.2 | 6.4 | 0.00 | 0.58 | 0.00 | 86 | 1013.3 |
| 20260507045916 | 8 | 293 | 1.6 | 3.2 | 0.00 | 0.61 | 0.00 | 86 | 1013.1 |
| 20260507044916 | 8 | 315 | 1.6 | 3.2 | 0.00 | 0.61 | 0.00 | 86 | 1013.0 |
| 20260507043916 | 8 | 225 | 1.6 | 3.2 | 0.00 | 0.61 | 0.00 | 86 | 1013.0 |
| 20260507042916 | 8 | 270 | 3.2 | 6.4 | 0.00 | 0.61 | 0.00 | 86 | 1012.8 |
| 20260507041916 | 8 | 135 | 1.6 | 4.8 | 0.00 | 0.64 | 0.00 | 86 | 1012.9 |
| 20260507040916 | 8 | 270 | 3.2 | 9.7 | 0.00 | 0.64 | 0.00 | 86 | 1012.8 |
| 20260507035916 | 8 | 338 | 1.6 | 1.6 | 0.00 | 0.71 | 0.00 | 86 | 1012.5 |
| 20260507034916 | 8 | 248 | 1.6 | 3.2 | 0.00 | 0.81 | 0.00 | 86 | 1012.5 |
| 20260507033916 | 7 | 248 | 3.2 | 6.4 | 0.00 | 0.97 | 0.00 | 86 | 1012.4 |
| 20260507032936 | 7 | 293 | 1.6 | 3.2 | 0.00 | 1.12 | 0.00 | 86 | 1012.3 |
| 20260507031916 | 7 | 0 | 1.6 | 3.2 | 0.00 | 1.19 | 0.00 | 86 | 1012.3 |
| 20260507030916 | 7 | 270 | 3.2 | 8.0 | 0.00 | 1.19 | 0.00 | 86 | 1012.4 |
| 20260507025916 | 7 | 315 | 1.6 | 3.2 | 0.00 | 1.19 | 0.00 | 86 | 1012.3 |
| 20260507024916 | 7 | 0.0 | 1.6 | 0.00 | 1.19 | 0.00 | 86 | 1012.1 | |
| 20260507023916 | 7 | 180 | 1.6 | 1.6 | 0.00 | 1.19 | 0.00 | 86 | 1012.3 |
| 20260507022916 | 7 | 0.0 | 1.6 | 0.00 | 1.19 | 0.00 | 86 | 1012.3 | |
| 20260507021916 | 8 | 270 | 1.6 | 3.2 | 0.00 | 1.22 | 0.00 | 86 | 1012.1 |
| 20260507020916 | 8 | 0.0 | 0.0 | 0.00 | 1.22 | 0.00 | 86 | 1012.0 | |
| 20260507015956 | 8 | 0 | 1.6 | 3.2 | 0.00 | 1.22 | 0.00 | 86 | 1011.8 |
| 20260507014916 | 8 | 338 | 1.6 | 3.2 | 0.00 | 1.22 | 0.00 | 86 | 1011.8 |
| 20260507013916 | 7 | 0.0 | 1.6 | 0.00 | 1.22 | 0.00 | 86 | 1011.8 | |
| 20260507012916 | 7 | 0.0 | 1.6 | 0.00 | 1.22 | 0.00 | 86 | 1011.8 | |
| 20260507011916 | 7 | 0.0 | 1.6 | 0.00 | 1.24 | 0.00 | 86 | 1011.7 | |
| 20260507010936 | 7 | 68 | 1.6 | 3.2 | 0.00 | 1.24 | 0.00 | 86 | 1011.7 |
| 20260507005916 | 7 | 0.0 | 1.6 | 0.00 | 1.27 | 0.00 | 86 | 1011.6 | |
| 20260507004936 | 7 | 270 | 3.2 | 3.2 | 0.00 | 1.27 | 0.00 | 86 | 1011.5 |
| 20260507003916 | 8 | 270 | 3.2 | 6.4 | 0.00 | 1.27 | 0.00 | 86 | 1011.1 |
| 20260507002916 | 8 | 0.0 | 0.0 | 0.00 | 1.27 | 0.00 | 86 | 1011.0 | |
| 20260507001916 | 8 | 270 | 1.6 | 1.6 | 0.00 | 1.27 | 0.00 | 86 | 1011.1 |
| 20260507000916 | 8 | 0.0 | 1.6 | 0.00 | 1.30 | 0.00 | 86 | 1011.1 | |
| 20260506235916 | 8 | 293 | 1.6 | 4.8 | 0.00 | 1.30 | 0.00 | 86 | 1011.2 |
| 20260506234916 | 8 | 45 | 3.2 | 8.0 | 0.00 | 1.30 | 0.00 | 86 | 1011.0 |
| 20260506233916 | 8 | 0.0 | 0.0 | 0.00 | 1.30 | 0.00 | 86 | 1011.0 | |
| 20260506232916 | 8 | 180 | 1.6 | 3.2 | 0.00 | 1.30 | 0.00 | 86 | 1011.1 |
| 20260506231915 | 8 | 338 | 1.6 | 3.2 | 0.00 | 1.30 | 0.00 | 86 | 1011.1 |
| 20260506230915 | 8 | 338 | 3.2 | 8.0 | 0.00 | 1.30 | 0.00 | 85 | 1011.2 |
| 20260506225936 | 9 | 315 | 4.8 | 8.0 | 0.00 | 1.32 | 0.00 | 85 | 1011.0 |
| 20260506224915 | 10 | 338 | 1.6 | 3.2 | 0.00 | 1.32 | 0.00 | 85 | 1010.8 |
| 20260506223916 | 10 | 338 | 3.2 | 4.8 | 0.00 | 1.32 | 0.00 | 85 | 1010.7 |
| 20260506222936 | 10 | 270 | 1.6 | 1.6 | 0.00 | 1.32 | 0.00 | 85 | 1010.6 |
| 20260506221916 | 10 | 338 | 3.2 | 4.8 | 0.00 | 1.32 | 0.00 | 84 | 1010.5 |
| 20260506220915 | 10 | 0 | 1.6 | 1.6 | 0.00 | 1.32 | 0.00 | 85 | 1010.4 |
| 20260506215916 | 11 | 135 | 4.8 | 9.7 | 0.00 | 1.32 | 1.32 | 85 | 1010.2 |
| 20260506214916 | 11 | 293 | 1.6 | 3.2 | 0.00 | 1.32 | 1.32 | 85 | 1010.3 |
| 20260506213916 | 11 | 0.0 | 1.6 | 0.00 | 1.32 | 1.32 | 85 | 1010.3 | |
| 20260506212916 | 11 | 270 | 1.6 | 3.2 | 0.00 | 1.32 | 1.32 | 85 | 1010.4 |
| 20260506211916 | 11 | 90 | 1.6 | 3.2 | 0.00 | 1.32 | 1.32 | 86 | 1010.3 |
| 20260506210916 | 11 | 270 | 6.4 | 9.7 | 0.00 | 1.32 | 1.32 | 86 | 1010.4 |
| 20260506210008 | 11 | 0.0 | 0.0 | 0.00 | 1.32 | 1.32 | 86 | 1010.2 | |
| 20260506205832 | 11 | 0.0 | 0.0 | 0.00 | 1.32 | 1.32 | 86 | 1010.2 | |
| 20260506205716 | 11 | 315 | 1.6 | 1.6 | 0.00 | 1.32 | 1.32 | 86 | 1010.2 |
| 20260506204716 | 11 | 293 | 1.6 | 1.6 | 0.00 | 1.32 | 1.32 | 86 | 1010.1 |
| 20260506203716 | 11 | 293 | 1.6 | 3.2 | 0.00 | 1.32 | 1.32 | 86 | 1010.1 |
| 20260506202812 | 11 | 0.0 | 0.0 | 0.00 | 1.32 | 1.32 | 86 | 1010.1 | |
| 20260506202650 | 11 | 0 | 3.2 | 3.2 | 0.00 | 1.32 | 1.32 | 86 | 1010.1 |
| 20260506202509 | 11 | 0.0 | 0.0 | 0.00 | 1.32 | 1.32 | 86 | 1010.1 | |
| 20260506202335 | 11 | 0.0 | 0.0 | 0.00 | 1.32 | 1.32 | 86 | 1010.1 | |
| 20260506202016 | 11 | 315 | 1.6 | 3.2 | 0.00 | 1.32 | 1.32 | 87 | 1010.0 |
| 20260506201112 | 11 | 270 | 6.4 | 9.7 | 0.00 | 1.32 | 1.32 | 87 | 1010.1 |
| 20260506200909 | 11 | 0.0 | 0.0 | 0.00 | 1.32 | 1.32 | 87 | 1010.0 | |
| 20260506200733 | 11 | 0.0 | 0.0 | 0.00 | 1.32 | 1.32 | 87 | 1010.0 | |
| 20260506200636 | 11 | 0.0 | 0.0 | 0.00 | 1.32 | 1.32 | 87 | 1010.0 | |
| 20260506200433 | 11 | 293 | 4.8 | 4.8 | 0.00 | 1.32 | 1.32 | 87 | 1009.9 |
| 20260506195716 | 11 | 270 | 3.2 | 3.2 | 0.00 | 1.32 | 1.32 | 87 | 1009.9 |
| 20260506194716 | 11 | 270 | 1.6 | 1.6 | 0.00 | 1.32 | 1.32 | 87 | 1009.9 |
| 20260506193716 | 11 | 225 | 1.6 | 3.2 | 0.00 | 1.32 | 1.32 | 87 | 1009.8 |
| 20260506192736 | 11 | 0.0 | 1.6 | 0.00 | 1.32 | 1.32 | 87 | 1009.6 | |
| 20260506191716 | 11 | 293 | 1.6 | 3.2 | 0.00 | 1.32 | 1.32 | 87 | 1009.7 |
| 20260506190736 | 11 | 0.0 | 0.0 | 0.00 | 1.32 | 1.32 | 87 | 1009.7 | |
| 20260506185822 | 11 | 338 | 4.8 | 6.4 | 0.00 | 1.32 | 1.32 | 87 | 1009.6 |
| 20260506184916 | 11 | 293 | 4.8 | 6.4 | 0.00 | 1.32 | 1.32 | 87 | 1009.4 |
| 20260506183915 | 11 | 0.0 | 1.6 | 0.00 | 1.32 | 1.32 | 87 | 1009.5 | |
| 20260506182916 | 11 | 338 | 1.6 | 4.8 | 0.00 | 1.32 | 1.32 | 87 | 1009.5 |
| 20260506181916 | 11 | 0.0 | 1.6 | 0.03 | 1.32 | 1.32 | 87 | 1009.3 | |
| 20260506180915 | 11 | 225 | 1.6 | 1.6 | 0.03 | 1.32 | 1.32 | 87 | 1009.2 |
| 20260506175916 | 12 | 0.0 | 1.6 | 0.03 | 1.32 | 1.32 | 87 | 1009.0 | |
| 20260506174916 | 12 | 293 | 1.6 | 3.2 | 0.03 | 1.32 | 1.32 | 87 | 1009.0 |
| 20260506173936 | 12 | 0.0 | 1.6 | 0.03 | 1.32 | 1.32 | 87 | 1008.8 | |
| 20260506172915 | 12 | 293 | 3.2 | 6.4 | 0.03 | 1.32 | 1.32 | 87 | 1008.8 |
| 20260506171936 | 12 | 338 | 3.2 | 4.8 | 0.00 | 1.30 | 1.30 | 87 | 1008.8 |
| 20260506170916 | 12 | 270 | 3.2 | 6.4 | 0.00 | 1.30 | 1.30 | 86 | 1008.9 |
| 20260506165915 | 13 | 0.0 | 1.6 | 0.00 | 1.30 | 1.30 | 87 | 1008.8 | |
| 20260506164915 | 13 | 293 | 1.6 | 1.6 | 0.00 | 1.30 | 1.30 | 87 | 1008.7 |
| 20260506163916 | 13 | 315 | 4.8 | 8.0 | 0.00 | 1.30 | 1.30 | 86 | 1008.6 |
| 20260506162917 | 13 | 248 | 1.6 | 4.8 | 0.00 | 1.30 | 1.30 | 87 | 1008.5 |
| 20260506161917 | 13 | 0.0 | 1.6 | 0.00 | 1.30 | 1.30 | 87 | 1008.8 | |
| 20260506160917 | 12 | 0.0 | 1.6 | 0.00 | 1.30 | 1.30 | 87 | 1008.9 | |
| 20260506155918 | 12 | 338 | 3.2 | 6.4 | 0.00 | 1.30 | 1.30 | 87 | 1009.0 |
| 20260506154917 | 13 | 315 | 1.6 | 1.6 | 0.00 | 1.30 | 1.30 | 88 | 1009.0 |
| 20260506153917 | 12 | 0.0 | 1.6 | 0.00 | 1.30 | 1.30 | 88 | 1009.0 | |
| 20260506152938 | 13 | 315 | 1.6 | 1.6 | 0.00 | 1.30 | 1.30 | 88 | 1009.1 |
| 20260506151916 | 13 | 315 | 3.2 | 8.0 | 0.00 | 1.30 | 1.30 | 88 | 1009.0 |
| 20260506150917 | 13 | 0.0 | 1.6 | 0.00 | 1.30 | 1.30 | 89 | 1008.8 | |
| 20260506145917 | 13 | 0.0 | 1.6 | 0.00 | 1.30 | 1.30 | 90 | 1008.8 | |
| 20260506144917 | 13 | 248 | 1.6 | 3.2 | 0.00 | 1.30 | 1.30 | 90 | 1008.6 |
| 20260506143917 | 12 | 315 | 1.6 | 3.2 | 0.00 | 1.30 | 1.30 | 90 | 1008.6 |
| 20260506142917 | 12 | 0.0 | 3.2 | 0.00 | 1.30 | 1.30 | 90 | 1008.8 | |
| 20260506141917 | 12 | 338 | 1.6 | 3.2 | 0.00 | 1.30 | 1.30 | 90 | 1008.8 |
| 20260506140917 | 12 | 315 | 1.6 | 3.2 | 0.00 | 1.30 | 1.30 | 90 | 1008.8 |
| 20260506135917 | 13 | 270 | 3.2 | 6.4 | 0.00 | 1.30 | 1.30 | 91 | 1008.7 |
| 20260506134917 | 12 | 293 | 1.6 | 3.2 | 0.00 | 1.30 | 1.30 | 92 | 1008.6 |
| 20260506133918 | 13 | 315 | 1.6 | 3.2 | 0.00 | 1.30 | 1.30 | 92 | 1008.6 |
| 20260506132917 | 12 | 0.0 | 1.6 | 0.00 | 1.30 | 1.30 | 93 | 1008.5 | |
| 20260506131917 | 12 | 338 | 1.6 | 3.2 | 0.00 | 1.30 | 1.30 | 92 | 1008.5 |
| 20260506130917 | 12 | 0.0 | 1.6 | 0.00 | 1.30 | 1.30 | 93 | 1008.4 | |
| 20260506125937 | 12 | 315 | 3.2 | 8.0 | 0.00 | 1.30 | 1.30 | 93 | 1008.5 |
| 20260506124917 | 12 | 293 | 1.6 | 3.2 | 0.00 | 1.30 | 1.30 | 93 | 1008.5 |
| 20260506123937 | 12 | 315 | 1.6 | 3.2 | 0.00 | 1.30 | 1.30 | 94 | 1008.5 |
| 20260506122917 | 12 | 0.0 | 1.6 | 0.00 | 1.30 | 1.30 | 93 | 1008.6 | |
| 20260506121917 | 12 | 315 | 1.6 | 1.6 | 0.00 | 1.30 | 1.30 | 93 | 1008.5 |
| 20260506120937 | 12 | 293 | 3.2 | 6.4 | 0.00 | 1.30 | 1.30 | 94 | 1008.5 |
| 20260506115917 | 12 | 0.0 | 1.6 | 0.00 | 1.30 | 1.30 | 94 | 1008.5 | |
| 20260506114937 | 12 | 0.0 | 1.6 | 0.00 | 1.30 | 1.30 | 94 | 1008.4 | |
| 20260506113917 | 12 | 315 | 1.6 | 1.6 | 0.00 | 1.30 | 1.30 | 94 | 1008.2 |
| 20260506112917 | 12 | 270 | 1.6 | 3.2 | 0.00 | 1.30 | 1.30 | 94 | 1008.0 |
| 20260506111917 | 12 | 315 | 3.2 | 8.0 | 0.00 | 1.30 | 1.30 | 94 | 1008.0 |
| 20260506110917 | 12 | 315 | 1.6 | 4.8 | 0.00 | 1.30 | 1.30 | 94 | 1007.9 |
| 20260506105917 | 12 | 338 | 1.6 | 4.8 | 0.00 | 1.30 | 1.30 | 94 | 1007.9 |
| 20260506104917 | 12 | 315 | 1.6 | 1.6 | 0.00 | 1.30 | 1.30 | 94 | 1007.8 |
| 20260506103917 | 12 | 338 | 1.6 | 4.8 | 0.03 | 1.30 | 1.30 | 94 | 1007.7 |
| 20260506102917 | 12 | 293 | 6.4 | 9.7 | 0.05 | 1.30 | 1.30 | 94 | 1007.6 |
| 20260506101917 | 12 | 0.0 | 0.0 | 0.05 | 1.30 | 1.30 | 94 | 1007.5 | |
| 20260506100917 | 12 | 270 | 3.2 | 6.4 | 0.05 | 1.30 | 1.30 | 94 | 1007.3 |
| 20260506095937 | 11 | 338 | 1.6 | 3.2 | 0.08 | 1.30 | 1.30 | 94 | 1007.3 |
| 20260506094917 | 11 | 23 | 1.6 | 4.8 | 0.10 | 1.30 | 1.30 | 94 | 1007.3 |
| 20260506093917 | 11 | 315 | 4.8 | 8.0 | 0.10 | 1.27 | 1.27 | 94 | 1007.1 |
| 20260506092917 | 11 | 338 | 1.6 | 3.2 | 0.08 | 1.27 | 1.27 | 94 | 1007.1 |
| 20260506091917 | 11 | 293 | 3.2 | 8.0 | 0.08 | 1.27 | 1.27 | 94 | 1007.0 |
| 20260506090917 | 11 | 293 | 1.6 | 1.6 | 0.10 | 1.24 | 1.24 | 94 | 1007.0 |
| 20260506085917 | 11 | 270 | 6.4 | 11.3 | 0.13 | 1.22 | 1.22 | 94 | 1006.9 |
| 20260506084916 | 11 | 315 | 4.8 | 8.0 | 0.13 | 1.19 | 1.19 | 94 | 1006.8 |
| 20260506083917 | 11 | 270 | 4.8 | 6.4 | 0.15 | 1.17 | 1.17 | 94 | 1006.7 |
| 20260506082917 | 11 | 315 | 3.2 | 6.4 | 0.18 | 1.17 | 1.17 | 94 | 1006.7 |
| 20260506081916 | 11 | 315 | 1.6 | 3.2 | 0.23 | 1.17 | 1.17 | 94 | 1006.7 |
| 20260506080916 | 11 | 338 | 4.8 | 9.7 | 0.23 | 1.14 | 1.14 | 94 | 1006.7 |
| 20260506072916 | 11 | 293 | 1.6 | 3.2 | 0.20 | 0.99 | 0.99 | 94 | 1006.3 |
| 20260506071917 | 11 | 315 | 1.6 | 3.2 | 0.15 | 0.94 | 0.94 | 94 | 1006.3 |
| 20260506070917 | 11 | 315 | 1.6 | 3.2 | 0.13 | 0.89 | 0.89 | 94 | 1006.2 |
| 20260506061916 | 11 | 0.0 | 1.6 | 0.05 | 0.79 | 0.79 | 93 | 1006.2 | |
| 20260506060916 | 11 | 270 | 3.2 | 3.2 | 0.05 | 0.79 | 0.79 | 93 | 1006.1 |